ITUPSAT1

Last updated on Thu Oct 30 2025 00:03:10 GMT+0000 (Coordinated Universal Time)

1 35935U 09051E 25302.44879324 .00001408 00000+0 30431-3 0 9999 2 35935 98.4160 200.7567 0006344 229.7648 130.2997 14.59875761855065
UTC large
Height (km)
Speed (km/s)
/
Latitude / Longitude
Inclination (degrees)
Orbital Period (minutes)
Azimuth
Elevation
Range (km)
Doppler Factor

Next 0 passes for location: London (51.5072 / 0.1276)

Sorry there are no passes over London.